Погода в Анахим-Лейк

Канада     52°28′13″N   125°18′42″W
темп.,
°C
ветер,
м/с
пор.,
м/с
влажн.,
%
обл.,
%
осадки,
мм/ч
давл.,
гПа
погр.,
м
18 июня, пт
пт1823:00+8зсз268497 0.1 1018166
02:00+6сз1288100 0.0 102047
05:00+6з119270 0.0 102020
08:00+9з226817 0.0 1019692
11:00+14зюз2346100 0.0 10161562
14:00+17з3436100 0.0 10151828
17:00+18зсз4433100 0.0 10131976
20:00+14зсз4649100 0.0 1014589
19 июня, сб
сб1923:00+10зсз2368100 0.0 101570
02:00+9зсз1374100 0.0 1015117
05:00+8сз2490100 0.7 1015187
08:00+7ссз1292100 0.9 1016171
11:00+8зсз1290100 2.2 1017249
14:00+8зсз1291100 0.8 1019217
17:00+8зюз0190100 1.0 1020173
20:00+10ююз128013 0.0 1020313
20 июня, вс
вс2023:00+6всв11941 0.0 102112
02:00+5св11940 0.0 102210
05:00+4вюв00925 0.0 102210
08:00+10ююв12716 0.0 1020255
11:00+19ююв243945 0.0 10171437
14:00+22вюв232964 0.0 10141883
17:00+24вюв222657 0.0 10122078
20:00+20в2241100 0.0 101218
21 июня, пн
пн2123:00+13ссз1160100 0.0 101311
02:00+11всв1166100 0.0 101310
05:00+10юв0073100 0.0 101310
08:00+14ююз0061100 0.0 1012192
11:00+22зюз1140100 0.0 1009951
14:00+25зюз2229100 0.0 10071933
17:00+26з34262 0.0 10042475
20:00+22зсз47410 0.0 1005502
22 июня, вт
вт2223:00+14сз11690 0.0 100716
02:00+11ссз01814 0.0 100710
05:00+9ююв00922 0.0 100710
08:00+15з12690 0.0 1006395
11:00+21з23390 0.0 10031260
14:00+25з452317 0.0 10011893
17:00+25зсз552397 0.0 10001967
20:00+20зсз473799 0.0 1002517